Regional Weather Roundup
Issued by NWS

Home | Current Version | Previous Version | Graphics & Text | Print | Product List | Glossary On
Versions: 1 2 3 4 5 6 7 8 9 10 11 12 13 14 15 16 17 18 19 20 21 22 23 24 25 26 27 28 29 30 31 32 33 34 35 36 37 38 39 40 41 42 43 44 45 46 47 48 49 50
000
ASUS45 KABQ 150710
RWRNM
WEATHER ROUNDUP FOR NEW MEXICO
NATIONAL WEATHER SERVICE ALBUQUERQUE NM
100 AM MDT MON SEP 15 2014

NOTE: "FAIR" MEANS FEW OR NO CLOUDS BELOW 12,000 FEET AGL WITH NO
       SIGNIFICANT WEATHER OR OBSTRUCTIONS TO VISION.

      THIS PRODUCT IS RELEASED AS TWO VERSIONS.  ONE VERSION NEAR
      THE TOP OF THE HOUR CONTAINING PRELIMINARY DATA FROM ALBUQUERQUE
      AND OTHER STATIONS.  A FINAL VERSION WITH ADDITIONAL DATA IS
      ISSUED ABOUT 10 MINUTES AFTER THE HOUR.

NMZ501-503-504-510>518-150800-
NORTHWEST PLATEAU/NORTHCENTRAL MOUNTAINS

CITY           SKY/WX    TMP DP  RH WIND       PRES   REMARKS
FARMINGTON     MOCLDY    67  45  45 NW5       30.16R
LOS ALAMOS     MOCLDY    61  49  65 S7        30.31S
SANTA FE       MOCLDY    59  51  75 CALM      30.27R
ANGEL FIRE     FAIR      46  41  80 SW5       30.40S

$$
NMZ402-403-502-505>509-150800-
WESTCENTRAL MOUNTAINS/SOUTHWEST MOUNTAINS

CITY           SKY/WX    TMP DP  RH WIND       PRES   REMARKS
GALLUP         MOCLDY    62  45  53 E3        30.24S
GRANTS         PTCLDY    61  48  63 S6        30.28R
SILVER CITY    PTCLDY    63  55  77 E7        30.24S

$$
NMZ407-409-411-412-150800-
SOUTHERN DESERTS

CITY           SKY/WX    TMP DP  RH WIND       PRES   REMARKS
LORDSBURG      FAIR      68  55  64 E10       30.14S
DEMING         PTCLDY    70  56  61 E8        30.16S
LAS CRUCES     PTCLDY    66  58  75 SE6       30.19S
HOLLOMAN AFB   MOCLDY    68  58  69 S13       30.15F
ALAMOGORDO     MOCLDY    64  57  77 CALM      30.18S
T OR C         PTCLDY    67  57  70 S6        30.19S

$$
NMZ519>523-150800-
CENTRAL VALLEYS/CENTRAL HIGHLANDS

CITY           SKY/WX    TMP DP  RH WIND       PRES   REMARKS
ALBUQUERQUE    PTCLDY    66  52  60 SE5       30.22S
DOUBLE EAGLE   PTCLDY    61  52  71 S5        30.25R
MORIARTY ARPT  FAIR      54  52  94 E3        30.28S
CLINES CORNERS CLEAR     54  52  93 W6        30.30S
BELEN          FAIR      64  54  70 S9        30.20S
SOCORRO        FAIR      63  55  74 SE6       30.19R

$$
NMZ524>526-539-540-150800-
SOUTHCENTRAL MOUNTAINS

CITY           SKY/WX    TMP DP  RH WIND       PRES   REMARKS
RUIDOSO        NOT AVBL

$$
NMZ527>531-150800-
NORTHEAST HIGHLANDS/NORTHEAST PLAINS

CITY           SKY/WX    TMP DP  RH WIND       PRES   REMARKS
LAS VEGAS      FOG       54  54 100 S8        30.29R VSB 1/4
RATON          MOCLDY    55  53  93 NW3       30.24S
CLAYTON        PTCLDY    59  56  89 SW15      30.15S

$$
NMZ532>537-150800-
EASTCENTRAL PLAINS

CITY           SKY/WX    TMP DP  RH WIND       PRES   REMARKS
TUCUMCARI      CLOUDY    66  58  75 SW14G25   30.17S
CANNON AFB     CLOUDY    62  61  97 SW12      30.21S
CLOVIS AIRPORT   N/A     63  57  82 SW14      30.23R

$$
NMZ028-029-538-150800-
SOUTHEAST PLAINS

CITY           SKY/WX    TMP DP  RH WIND       PRES   REMARKS
ROSWELL        CLOUDY    62  59  90 S13       30.19R
CARLSBAD       CLOUDY    63  63 100 S6        30.18F FOG
HOBBS          CLOUDY    63  63 100 S13       30.22S


$$


USA.gov is the U.S. government's official web portal to all federal, state and local government web resources and services.